Flag for Ukraine Weather past 2 weeks in Chernobyl, Ukraine

Now
81 °F

Clear.


Feels Like: 81 °F
Forecast: 61 / 80 °F
Wind: 10 mph from Southeast

Location: Hostomel

Current Time: May 26, 2015 at 5:09:55 PM

Latest Report: May 26, 2015 at 4:30 PM


Visibility: 6 mi

Pressure: 29.68 "Hg

Humidity: 42%

Dew point: 55 °F

Location of ChernobylLocation

Historic Weather in Chernobyl — Graph

°F

Chernobyl temperature yesterday

Maximum temperature yesterday: 77 °F (at 4:00 PM)
Minimum temperature yesterday: 54 °F (at 5:00 AM)
Average temperature yesterday: 65 °F

Past Weeks' High & Low Weather Summary

 TemperatureHumidityPressure
High84 °F (May 21, 4:30 PM)100% (May 12, 6:00 AM)30.24 "Hg (May 12, 6:00 AM)
Low43 °F (May 19, 5:00 AM)25% (May 11, 6:00 PM)29.50 "Hg (May 15, 3:00 AM)
Average64 °F59%29.95 "Hg
* Reported May 11 4:00 PM — May 26 4:00 PM, Chernobyl, Weather by CustomWeather, © 2015

Note: Actual official high and low records may vary slightly from our data, if they occured in-between our weather recording intervals... More about our weather records

Advertising

Chernobyl weather history for previous 24 hours

 ConditionsComfort  
Time TempWeatherWind HumidityBarometerVisibility
4:00 PM
Tue, May 26
82 °FBroken clouds.10 mph40%29.68 "HgN/A
3:30 PM82 °FBroken clouds.8 mph42%29.71 "HgN/A
3:00 PM81 °FBroken clouds.8 mph42%29.71 "HgN/A
2:30 PM81 °FPartly sunny.8 mph45%29.71 "HgN/A
2:00 PM81 °FPartly sunny.8 mph45%29.71 "HgN/A
1:30 PM81 °FPassing clouds.8 mph45%29.71 "HgN/A
1:00 PM81 °FPassing clouds.8 mph42%29.74 "HgN/A
12:30 PM81 °FPassing clouds.6 mph42%29.74 "HgN/A
12:00 PM81 °FPassing clouds.8 mph42%29.74 "HgN/A
11:30 AM79 °FSunny.10 mph42%29.74 "Hg10 mi
11:00 AM77 °FBroken clouds.8 mph44%29.74 "HgN/A
10:30 AM79 °FSunny.8 mph48%29.74 "Hg10 mi
10:00 AM77 °FSunny.6 mph54%29.74 "Hg10 mi
9:30 AM75 °FSunny.3 mph57%29.74 "Hg10 mi
9:00 AM72 °FPassing clouds.3 mph65%29.74 "HgN/A
8:00 AM68 °FSunny.3 mph73%29.77 "Hg10 mi
7:00 AM64 °FSunny.3 mph83%29.77 "Hg6 mi
6:00 AM61 °FCool.1 mph94%29.77 "Hg6 mi
5:00 AM59 °FCool.1 mph94%29.77 "Hg5 mi
4:00 AM59 °FCool.1 mph100%29.77 "Hg6 mi
3:00 AM63 °FMild.3 mph88%29.80 "Hg6 mi
2:00 AM63 °FMild.3 mph88%29.80 "Hg6 mi
1:00 AM64 °FMild.6 mph83%29.83 "HgN/A
12:00 AM66 °FMild.3 mph78%29.83 "HgN/A
11:00 PM
Mon, May 25
66 °FMild.3 mph83%29.86 "HgN/A
10:00 PM68 °FMild.3 mph78%29.86 "HgN/A
9:00 PM70 °FMild.3 mph69%29.86 "HgN/A
8:00 PM73 °FMild.6 mph65%29.86 "HgN/A
7:00 PM77 °FWarm.6 mph57%29.86 "HgN/A
6:00 PM77 °FWarm.6 mph57%29.86 "HgN/A
5:00 PM77 °FSunny.8 mph54%29.89 "Hg10 mi
Weather by CustomWeather, © 2015

See weather overviewHow to use our weather pages